{"data":{"norad_id":57522,"epoch":"2026-05-25T02:25:53.297184Z","epoch_age_seconds":62206,"freshness":"FRESH","line1":"1 57522U 23115B   26145.10131131  .00001645  00000+0  69274-4 0  9999","line2":"2 57522  43.0027 290.3870 0000906 281.9268  78.1482 15.27590772154037","mean_motion":15.27590772,"eccentricity":9.06e-5,"inclination_deg":43.0027,"raan_deg":290.387,"arg_perigee_deg":281.9268,"mean_anomaly_deg":78.1482,"bstar":6.9274e-5,"rev_number":15403,"period_min":94.266083979722,"perigee_km":482.395220448,"apogee_km":483.63846152398,"semimajor_km":6861.153840986,"source":"CELESTRAK","updated_at":"2026-05-25T13:38:18.331778Z"}}